owner,sensor,date,latitude,longitude,vertical_datum,sea_water_practical_salinity,qcFlag 
TABS,ioos:station:wmo:42051:1,2017-02-01T00:00:00Z,29.6350,-93.6417,2.0,0.0099,11111222 
TABS,ioos:station:wmo:42051:1,2017-02-01T00:30:00Z,29.6350,-93.6417,2.0,0.0097,11111222 
TABS,ioos:station:wmo:42051:1,2017-02-01T01:00:00Z,29.6350,-93.6417,2.0,0.0097,11111222 
TABS,ioos:station:wmo:42051:1,2017-02-01T01:30:00Z,29.6350,-93.6417,2.0,0.0096,11111222 
TABS,ioos:station:wmo:42051:1,2017-02-01T02:00:00Z,29.6350,-93.6417,2.0,0.0094,11111222 
TABS,ioos:station:wmo:42051:1,2017-02-01T02:30:00Z,29.6350,-93.6417,2.0,0.0093,11111222 
TABS,ioos:station:wmo:42051:1,2017-02-01T03:00:00Z,29.6350,-93.6417,2.0,0.0093,11111222 
TABS,ioos:station:wmo:42051:1,2017-02-01T03:30:00Z,29.6350,-93.6417,2.0,0.0094,11111222 
TABS,ioos:station:wmo:42051:1,2017-02-01T04:00:00Z,29.6350,-93.6417,2.0,0.0095,11111222 
TABS,ioos:station:wmo:42051:1,2017-02-01T04:30:00Z,29.6350,-93.6417,2.0,0.0097,11111222 
TABS,ioos:station:wmo:42051:1,2017-02-01T05:00:00Z,29.6350,-93.6417,2.0,0.0097,11111222 
TABS,ioos:station:wmo:42051:1,2017-02-01T05:30:00Z,29.6350,-93.6417,2.0,0.0097,11111222 
TABS,ioos:station:wmo:42051:1,2017-02-01T06:00:00Z,29.6350,-93.6417,2.0,0.0096,11111222 
TABS,ioos:station:wmo:42051:1,2017-02-01T06:30:00Z,29.6350,-93.6417,2.0,0.0095,11111222 
TABS,ioos:station:wmo:42051:1,2017-02-01T07:00:00Z,29.6350,-93.6417,2.0,0.0094,11111222 
TABS,ioos:station:wmo:42051:1,2017-02-01T07:30:00Z,29.6350,-93.6417,2.0,0.0094,11111222 
TABS,ioos:station:wmo:42051:1,2017-02-01T08:00:00Z,29.6350,-93.6417,2.0,0.0092,11111222 
TABS,ioos:station:wmo:42051:1,2017-02-01T08:30:00Z,29.6350,-93.6417,2.0,0.0091,11111222 
TABS,ioos:station:wmo:42051:1,2017-02-01T09:00:00Z,29.6350,-93.6417,2.0,0.009,11111222 
TABS,ioos:station:wmo:42051:1,2017-02-01T09:30:00Z,29.6350,-93.6417,2.0,0.0091,11111222 
TABS,ioos:station:wmo:42051:1,2017-02-01T10:00:00Z,29.6350,-93.6417,2.0,0.0091,11111222 
TABS,ioos:station:wmo:42051:1,2017-02-01T10:30:00Z,29.6350,-93.6417,2.0,0.009,11111222 
TABS,ioos:station:wmo:42051:1,2017-02-01T11:00:00Z,29.6350,-93.6417,2.0,0.0089,11111222 
TABS,ioos:station:wmo:42051:1,2017-02-01T11:30:00Z,29.6350,-93.6417,2.0,0.0089,11111222 
TABS,ioos:station:wmo:42051:1,2017-02-01T12:00:00Z,29.6350,-93.6417,2.0,0.0089,11111222 
TABS,ioos:station:wmo:42051:1,2017-02-01T12:30:00Z,29.6350,-93.6417,2.0,0.0089,11111222 
TABS,ioos:station:wmo:42051:1,2017-02-01T13:00:00Z,29.6350,-93.6417,2.0,31.5618,11111222 
TABS,ioos:station:wmo:42051:1,2017-02-01T13:30:00Z,29.6350,-93.6417,2.0,31.5709,11111222 
TABS,ioos:station:wmo:42051:1,2017-02-01T14:00:00Z,29.6350,-93.6417,2.0,31.5766,11111222 
TABS,ioos:station:wmo:42051:1,2017-02-01T14:30:00Z,29.6350,-93.6417,2.0,31.5803,11111222 
TABS,ioos:station:wmo:42051:1,2017-02-01T15:00:00Z,29.6350,-93.6417,2.0,31.5845,11111222 
TABS,ioos:station:wmo:42051:1,2017-02-01T15:30:00Z,29.6350,-93.6417,2.0,31.5863,11111222 
TABS,ioos:station:wmo:42051:1,2017-02-01T16:00:00Z,29.6350,-93.6417,2.0,31.5875,11111222 
TABS,ioos:station:wmo:42051:1,2017-02-01T16:30:00Z,29.6350,-93.6417,2.0,31.5903,11111222 
TABS,ioos:station:wmo:42051:1,2017-02-01T17:00:00Z,29.6350,-93.6417,2.0,31.5834,11111222 
TABS,ioos:station:wmo:42051:1,2017-02-01T17:30:00Z,29.6350,-93.6417,2.0,31.598,11111222 
TABS,ioos:station:wmo:42051:1,2017-02-01T18:00:00Z,29.6350,-93.6417,2.0,31.6161,11111222 
TABS,ioos:station:wmo:42051:1,2017-02-01T18:30:00Z,29.6350,-93.6417,2.0,31.4346,11111222 
TABS,ioos:station:wmo:42051:1,2017-02-01T19:00:00Z,29.6350,-93.6417,2.0,31.4287,11111222 
TABS,ioos:station:wmo:42051:1,2017-02-01T19:30:00Z,29.6350,-93.6417,2.0,31.4086,11111222 
TABS,ioos:station:wmo:42051:1,2017-02-01T20:00:00Z,29.6350,-93.6417,2.0,31.3926,11111222 
TABS,ioos:station:wmo:42051:1,2017-02-01T20:30:00Z,29.6350,-93.6417,2.0,31.3991,11111222 
TABS,ioos:station:wmo:42051:1,2017-02-01T21:00:00Z,29.6350,-93.6417,2.0,31.4175,11111222 
TABS,ioos:station:wmo:42051:1,2017-02-01T21:30:00Z,29.6350,-93.6417,2.0,31.4632,11111222 
TABS,ioos:station:wmo:42051:1,2017-02-01T22:00:00Z,29.6350,-93.6417,2.0,31.4142,11111222 
TABS,ioos:station:wmo:42051:1,2017-02-01T22:30:00Z,29.6350,-93.6417,2.0,31.4207,11111222 
TABS,ioos:station:wmo:42051:1,2017-02-01T23:00:00Z,29.6350,-93.6417,2.0,31.4195,11111222 
TABS,ioos:station:wmo:42051:1,2017-02-02T04:00:00Z,29.6350,-93.6417,2.0,31.7867,11111222 
TABS,ioos:station:wmo:42051:1,2017-02-02T04:30:00Z,29.6350,-93.6417,2.0,31.7654,11111222 
TABS,ioos:station:wmo:42051:1,2017-02-02T05:00:00Z,29.6350,-93.6417,2.0,31.8644,11111222 
TABS,ioos:station:wmo:42051:1,2017-02-02T05:30:00Z,29.6350,-93.6417,2.0,31.9231,11111222 
TABS,ioos:station:wmo:42051:1,2017-02-02T06:00:00Z,29.6350,-93.6417,2.0,31.9357,11111222 
TABS,ioos:station:wmo:42051:1,2017-02-02T06:30:00Z,29.6350,-93.6417,2.0,31.9735,11111222 
TABS,ioos:station:wmo:42051:1,2017-02-02T07:00:00Z,29.6350,-93.6417,2.0,31.9861,11111222 
TABS,ioos:station:wmo:42051:1,2017-02-02T07:30:00Z,29.6350,-93.6417,2.0,32.062,11111222 
TABS,ioos:station:wmo:42051:1,2017-02-02T08:00:00Z,29.6350,-93.6417,2.0,32.1453,11111222 
TABS,ioos:station:wmo:42051:1,2017-02-02T08:30:00Z,29.6350,-93.6417,2.0,32.2095,11111222 
TABS,ioos:station:wmo:42051:1,2017-02-02T09:00:00Z,29.6350,-93.6417,2.0,32.219,11111222 
TABS,ioos:station:wmo:42051:1,2017-02-02T09:30:00Z,29.6350,-93.6417,2.0,32.2254,11111222 
TABS,ioos:station:wmo:42051:1,2017-02-02T10:00:00Z,29.6350,-93.6417,2.0,32.2422,11111222 
TABS,ioos:station:wmo:42051:1,2017-02-02T10:30:00Z,29.6350,-93.6417,2.0,32.2431,11111222 
TABS,ioos:station:wmo:42051:1,2017-02-02T11:00:00Z,29.6350,-93.6417,2.0,32.2153,11111222 
TABS,ioos:station:wmo:42051:1,2017-02-02T11:30:00Z,29.6350,-93.6417,2.0,32.208,11111222 
TABS,ioos:station:wmo:42051:1,2017-02-02T12:00:00Z,29.6350,-93.6417,2.0,32.1192,11111222 
TABS,ioos:station:wmo:42051:1,2017-02-02T12:30:00Z,29.6350,-93.6417,2.0,32.2203,11111222 
TABS,ioos:station:wmo:42051:1,2017-02-02T13:00:00Z,29.6350,-93.6417,2.0,32.1406,11111222 
TABS,ioos:station:wmo:42051:1,2017-02-02T13:30:00Z,29.6350,-93.6417,2.0,32.2314,11111222 
TABS,ioos:station:wmo:42051:1,2017-02-02T14:00:00Z,29.6350,-93.6417,2.0,32.1167,11111222 
TABS,ioos:station:wmo:42051:1,2017-02-02T14:30:00Z,29.6350,-93.6417,2.0,32.0099,11111222 
TABS,ioos:station:wmo:42051:1,2017-02-02T15:00:00Z,29.6350,-93.6417,2.0,31.9606,11111222 
TABS,ioos:station:wmo:42051:1,2017-02-02T15:30:00Z,29.6350,-93.6417,2.0,31.9823,11111222 
TABS,ioos:station:wmo:42051:1,2017-02-02T16:00:00Z,29.6350,-93.6417,2.0,31.9116,11111222 
TABS,ioos:station:wmo:42051:1,2017-02-02T16:30:00Z,29.6350,-93.6417,2.0,31.9312,11111222 
TABS,ioos:station:wmo:42051:1,2017-02-02T17:00:00Z,29.6350,-93.6417,2.0,31.9451,11111222 
TABS,ioos:station:wmo:42051:1,2017-02-02T17:30:00Z,29.6350,-93.6417,2.0,31.9851,11111222 
TABS,ioos:station:wmo:42051:1,2017-02-02T18:00:00Z,29.6350,-93.6417,2.0,31.9323,11111222 
TABS,ioos:station:wmo:42051:1,2017-02-02T18:30:00Z,29.6350,-93.6417,2.0,31.9574,11111222 
TABS,ioos:station:wmo:42051:1,2017-02-02T19:00:00Z,29.6350,-93.6417,2.0,31.9659,11111222 
TABS,ioos:station:wmo:42051:1,2017-02-02T19:30:00Z,29.6350,-93.6417,2.0,31.9545,11111222 
TABS,ioos:station:wmo:42051:1,2017-02-02T20:00:00Z,29.6350,-93.6417,2.0,31.897,11111222 
TABS,ioos:station:wmo:42051:1,2017-02-02T20:30:00Z,29.6350,-93.6417,2.0,31.8805,11111222 
TABS,ioos:station:wmo:42051:1,2017-02-02T21:00:00Z,29.6350,-93.6417,2.0,31.8646,11111222 
TABS,ioos:station:wmo:42051:1,2017-02-02T21:30:00Z,29.6350,-93.6417,2.0,31.8634,11111222 
TABS,ioos:station:wmo:42051:1,2017-02-02T22:00:00Z,29.6350,-93.6417,2.0,31.871,11111222 
TABS,ioos:station:wmo:42051:1,2017-02-02T22:30:00Z,29.6350,-93.6417,2.0,31.8644,11111222 
TABS,ioos:station:wmo:42051:1,2017-02-02T23:00:00Z,29.6350,-93.6417,2.0,31.9097,11111222 
TABS,ioos:station:wmo:42051:1,2017-02-02T23:30:00Z,29.6350,-93.6417,2.0,31.8286,11111222 
TABS,ioos:station:wmo:42051:1,2017-02-03T00:00:00Z,29.6350,-93.6417,2.0,31.8625,11111222 
TABS,ioos:station:wmo:42051:1,2017-02-03T00:30:00Z,29.6350,-93.6417,2.0,31.8648,11111222 
TABS,ioos:station:wmo:42051:1,2017-02-03T01:00:00Z,29.6350,-93.6417,2.0,31.8675,11111222 
TABS,ioos:station:wmo:42051:1,2017-02-03T01:30:00Z,29.6350,-93.6417,2.0,31.8876,11111222 
TABS,ioos:station:wmo:42051:1,2017-02-03T02:00:00Z,29.6350,-93.6417,2.0,31.9039,11111222 
TABS,ioos:station:wmo:42051:1,2017-02-03T02:30:00Z,29.6350,-93.6417,2.0,31.9096,11111222 
TABS,ioos:station:wmo:42051:1,2017-02-03T03:00:00Z,29.6350,-93.6417,2.0,31.9236,11111222 
TABS,ioos:station:wmo:42051:1,2017-02-03T03:30:00Z,29.6350,-93.6417,2.0,31.9238,11111222 
TABS,ioos:station:wmo:42051:1,2017-02-03T04:00:00Z,29.6350,-93.6417,2.0,31.9291,11111222 
TABS,ioos:station:wmo:42051:1,2017-02-03T04:30:00Z,29.6350,-93.6417,2.0,31.9222,11111222 
TABS,ioos:station:wmo:42051:1,2017-02-03T05:00:00Z,29.6350,-93.6417,2.0,31.8976,11111222 
TABS,ioos:station:wmo:42051:1,2017-02-03T05:30:00Z,29.6350,-93.6417,2.0,31.84,11111222 
TABS,ioos:station:wmo:42051:1,2017-02-03T06:00:00Z,29.6350,-93.6417,2.0,31.8083,11111222 
TABS,ioos:station:wmo:42051:1,2017-02-03T06:30:00Z,29.6350,-93.6417,2.0,31.8974,11111222 
TABS,ioos:station:wmo:42051:1,2017-02-03T07:00:00Z,29.6350,-93.6417,2.0,31.9653,11111222 
TABS,ioos:station:wmo:42051:1,2017-02-03T07:30:00Z,29.6350,-93.6417,2.0,31.989,11111222 
TABS,ioos:station:wmo:42051:1,2017-02-03T08:00:00Z,29.6350,-93.6417,2.0,32.0047,11111222 
TABS,ioos:station:wmo:42051:1,2017-02-03T08:30:00Z,29.6350,-93.6417,2.0,32.0193,11111222 
TABS,ioos:station:wmo:42051:1,2017-02-03T09:00:00Z,29.6350,-93.6417,2.0,32.0311,11111222 
TABS,ioos:station:wmo:42051:1,2017-02-03T09:30:00Z,29.6350,-93.6417,2.0,32.0394,11111222 
TABS,ioos:station:wmo:42051:1,2017-02-03T10:00:00Z,29.6350,-93.6417,2.0,32.0491,11111222 
TABS,ioos:station:wmo:42051:1,2017-02-03T10:30:00Z,29.6350,-93.6417,2.0,32.0575,11111222 
TABS,ioos:station:wmo:42051:1,2017-02-03T11:00:00Z,29.6350,-93.6417,2.0,32.0688,11111222 
TABS,ioos:station:wmo:42051:1,2017-02-03T11:30:00Z,29.6350,-93.6417,2.0,32.0744,11111222 
TABS,ioos:station:wmo:42051:1,2017-02-03T12:00:00Z,29.6350,-93.6417,2.0,32.0877,11111222 
TABS,ioos:station:wmo:42051:1,2017-02-03T12:30:00Z,29.6350,-93.6417,2.0,32.0955,11111222 
TABS,ioos:station:wmo:42051:1,2017-02-03T13:00:00Z,29.6350,-93.6417,2.0,32.1146,11111222 
TABS,ioos:station:wmo:42051:1,2017-02-03T13:30:00Z,29.6350,-93.6417,2.0,31.9112,11111222 
TABS,ioos:station:wmo:42051:1,2017-02-03T14:00:00Z,29.6350,-93.6417,2.0,31.8203,11111222 
TABS,ioos:station:wmo:42051:1,2017-02-03T14:30:00Z,29.6350,-93.6417,2.0,31.7138,11111222 
TABS,ioos:station:wmo:42051:1,2017-02-03T15:00:00Z,29.6350,-93.6417,2.0,31.3792,11111222 
TABS,ioos:station:wmo:42051:1,2017-02-03T15:30:00Z,29.6350,-93.6417,2.0,31.4577,11111222 
TABS,ioos:station:wmo:42051:1,2017-02-03T16:00:00Z,29.6350,-93.6417,2.0,31.3656,11111222 
TABS,ioos:station:wmo:42051:1,2017-02-03T16:30:00Z,29.6350,-93.6417,2.0,31.2633,11111222 
TABS,ioos:station:wmo:42051:1,2017-02-03T17:00:00Z,29.6350,-93.6417,2.0,31.287,11111222 
TABS,ioos:station:wmo:42051:1,2017-02-03T17:30:00Z,29.6350,-93.6417,2.0,31.2276,11111222 
TABS,ioos:station:wmo:42051:1,2017-02-03T18:00:00Z,29.6350,-93.6417,2.0,31.167,11111222 
TABS,ioos:station:wmo:42051:1,2017-02-03T18:30:00Z,29.6350,-93.6417,2.0,31.078,11111222 
TABS,ioos:station:wmo:42051:1,2017-02-03T19:00:00Z,29.6350,-93.6417,2.0,31.023,11111222 
TABS,ioos:station:wmo:42051:1,2017-02-03T19:30:00Z,29.6350,-93.6417,2.0,31.0137,11111222 
TABS,ioos:station:wmo:42051:1,2017-02-03T20:00:00Z,29.6350,-93.6417,2.0,31.0095,11111222 
TABS,ioos:station:wmo:42051:1,2017-02-03T20:30:00Z,29.6350,-93.6417,2.0,30.9752,11111222 
TABS,ioos:station:wmo:42051:1,2017-02-03T21:00:00Z,29.6350,-93.6417,2.0,30.9899,11111222 
TABS,ioos:station:wmo:42051:1,2017-02-03T21:30:00Z,29.6350,-93.6417,2.0,30.9927,11111222 
TABS,ioos:station:wmo:42051:1,2017-02-03T22:00:00Z,29.6350,-93.6417,2.0,30.9792,11111222 
TABS,ioos:station:wmo:42051:1,2017-02-03T22:30:00Z,29.6350,-93.6417,2.0,30.9246,11111222 
TABS,ioos:station:wmo:42051:1,2017-02-03T23:00:00Z,29.6350,-93.6417,2.0,30.8764,11111222 
TABS,ioos:station:wmo:42051:1,2017-02-03T23:30:00Z,29.6350,-93.6417,2.0,30.8699,11111222 
TABS,ioos:station:wmo:42051:1,2017-02-04T00:00:00Z,29.6350,-93.6417,2.0,30.8608,11111222 
TABS,ioos:station:wmo:42051:1,2017-02-04T00:30:00Z,29.6350,-93.6417,2.0,30.8736,11111222 
TABS,ioos:station:wmo:42051:1,2017-02-04T01:00:00Z,29.6350,-93.6417,2.0,30.8597,11111222 
TABS,ioos:station:wmo:42051:1,2017-02-04T01:30:00Z,29.6350,-93.6417,2.0,30.8494,11111222 
TABS,ioos:station:wmo:42051:1,2017-02-04T02:00:00Z,29.6350,-93.6417,2.0,30.8436,11111222 
TABS,ioos:station:wmo:42051:1,2017-02-04T02:30:00Z,29.6350,-93.6417,2.0,30.8626,11111222 
TABS,ioos:station:wmo:42051:1,2017-02-04T03:00:00Z,29.6350,-93.6417,2.0,30.8788,11111222 
TABS,ioos:station:wmo:42051:1,2017-02-04T03:30:00Z,29.6350,-93.6417,2.0,30.8944,11111222 
TABS,ioos:station:wmo:42051:1,2017-02-04T04:00:00Z,29.6350,-93.6417,2.0,30.8972,11111222 
TABS,ioos:station:wmo:42051:1,2017-02-04T04:30:00Z,29.6350,-93.6417,2.0,30.8959,11111222 
TABS,ioos:station:wmo:42051:1,2017-02-04T05:00:00Z,29.6350,-93.6417,2.0,30.9054,11111222 
TABS,ioos:station:wmo:42051:1,2017-02-04T05:30:00Z,29.6350,-93.6417,2.0,30.3758,11111222 
TABS,ioos:station:wmo:42051:1,2017-02-04T06:00:00Z,29.6350,-93.6417,2.0,29.9744,11111222 
TABS,ioos:station:wmo:42051:1,2017-02-04T06:30:00Z,29.6350,-93.6417,2.0,30.0802,11111222 
TABS,ioos:station:wmo:42051:1,2017-02-04T07:00:00Z,29.6350,-93.6417,2.0,30.222,11111222 
TABS,ioos:station:wmo:42051:1,2017-02-04T07:30:00Z,29.6350,-93.6417,2.0,30.3249,11111222 
TABS,ioos:station:wmo:42051:1,2017-02-04T08:00:00Z,29.6350,-93.6417,2.0,30.3495,11111222 
TABS,ioos:station:wmo:42051:1,2017-02-04T08:30:00Z,29.6350,-93.6417,2.0,30.3756,11111222 
TABS,ioos:station:wmo:42051:1,2017-02-04T09:00:00Z,29.6350,-93.6417,2.0,30.3684,11111222 
TABS,ioos:station:wmo:42051:1,2017-02-04T09:30:00Z,29.6350,-93.6417,2.0,30.3719,11111222 
TABS,ioos:station:wmo:42051:1,2017-02-04T10:00:00Z,29.6350,-93.6417,2.0,30.411,11111222 
TABS,ioos:station:wmo:42051:1,2017-02-04T10:30:00Z,29.6350,-93.6417,2.0,30.3996,11111222 
TABS,ioos:station:wmo:42051:1,2017-02-04T11:00:00Z,29.6350,-93.6417,2.0,30.2731,11111222 
TABS,ioos:station:wmo:42051:1,2017-02-04T11:30:00Z,29.6350,-93.6417,2.0,30.3906,11111222 
TABS,ioos:station:wmo:42051:1,2017-02-04T12:00:00Z,29.6350,-93.6417,2.0,30.4119,11111222 
TABS,ioos:station:wmo:42051:1,2017-02-04T12:30:00Z,29.6350,-93.6417,2.0,30.3138,11111222 
TABS,ioos:station:wmo:42051:1,2017-02-04T13:00:00Z,29.6350,-93.6417,2.0,30.2948,11111222 
TABS,ioos:station:wmo:42051:1,2017-02-04T13:30:00Z,29.6350,-93.6417,2.0,30.2325,11111222 
TABS,ioos:station:wmo:42051:1,2017-02-04T14:00:00Z,29.6350,-93.6417,2.0,30.22,11111222 
TABS,ioos:station:wmo:42051:1,2017-02-04T14:30:00Z,29.6350,-93.6417,2.0,30.2829,11111222 
TABS,ioos:station:wmo:42051:1,2017-02-04T15:00:00Z,29.6350,-93.6417,2.0,30.3143,11111222 
TABS,ioos:station:wmo:42051:1,2017-02-04T15:30:00Z,29.6350,-93.6417,2.0,30.3292,11111222 
TABS,ioos:station:wmo:42051:1,2017-02-04T16:00:00Z,29.6350,-93.6417,2.0,30.385,11111222 
TABS,ioos:station:wmo:42051:1,2017-02-04T16:30:00Z,29.6350,-93.6417,2.0,30.3763,11111222 
TABS,ioos:station:wmo:42051:1,2017-02-04T17:00:00Z,29.6350,-93.6417,2.0,30.3157,11111222 
TABS,ioos:station:wmo:42051:1,2017-02-04T17:30:00Z,29.6350,-93.6417,2.0,30.258,11111222 
TABS,ioos:station:wmo:42051:1,2017-02-04T18:00:00Z,29.6350,-93.6417,2.0,30.274,11111222 
TABS,ioos:station:wmo:42051:1,2017-02-04T18:30:00Z,29.6350,-93.6417,2.0,30.3119,11111222 
TABS,ioos:station:wmo:42051:1,2017-02-04T19:00:00Z,29.6350,-93.6417,2.0,30.3892,11111222 
TABS,ioos:station:wmo:42051:1,2017-02-04T19:30:00Z,29.6350,-93.6417,2.0,30.447,11111222 
TABS,ioos:station:wmo:42051:1,2017-02-04T20:00:00Z,29.6350,-93.6417,2.0,30.4573,11111222 
TABS,ioos:station:wmo:42051:1,2017-02-04T20:30:00Z,29.6350,-93.6417,2.0,30.4586,11111222 
TABS,ioos:station:wmo:42051:1,2017-02-04T21:00:00Z,29.6350,-93.6417,2.0,30.4653,11111222 
TABS,ioos:station:wmo:42051:1,2017-02-04T21:30:00Z,29.6350,-93.6417,2.0,30.4839,11111222 
TABS,ioos:station:wmo:42051:1,2017-02-04T22:00:00Z,29.6350,-93.6417,2.0,30.5066,11111222 
TABS,ioos:station:wmo:42051:1,2017-02-04T22:30:00Z,29.6350,-93.6417,2.0,30.5344,11111222 
TABS,ioos:station:wmo:42051:1,2017-02-04T23:00:00Z,29.6350,-93.6417,2.0,30.5287,11111222 
TABS,ioos:station:wmo:42051:1,2017-02-04T23:30:00Z,29.6350,-93.6417,2.0,30.5297,11111222 
TABS,ioos:station:wmo:42051:1,2017-02-05T00:00:00Z,29.6350,-93.6417,2.0,30.5182,11111222 
TABS,ioos:station:wmo:42051:1,2017-02-05T00:30:00Z,29.6350,-93.6417,2.0,30.5065,11111222 
TABS,ioos:station:wmo:42051:1,2017-02-05T01:00:00Z,29.6350,-93.6417,2.0,30.5197,11111222 
TABS,ioos:station:wmo:42051:1,2017-02-05T01:30:00Z,29.6350,-93.6417,2.0,30.5163,11111222 
TABS,ioos:station:wmo:42051:1,2017-02-05T02:00:00Z,29.6350,-93.6417,2.0,30.5064,11111222 
TABS,ioos:station:wmo:42051:1,2017-02-05T02:30:00Z,29.6350,-93.6417,2.0,30.5049,11111222 
TABS,ioos:station:wmo:42051:1,2017-02-05T03:00:00Z,29.6350,-93.6417,2.0,30.4803,11111222 
TABS,ioos:station:wmo:42051:1,2017-02-05T03:30:00Z,29.6350,-93.6417,2.0,30.4517,11111222 
TABS,ioos:station:wmo:42051:1,2017-02-05T04:00:00Z,29.6350,-93.6417,2.0,30.4145,11111222 
TABS,ioos:station:wmo:42051:1,2017-02-05T04:30:00Z,29.6350,-93.6417,2.0,30.416,11111222 
TABS,ioos:station:wmo:42051:1,2017-02-05T05:00:00Z,29.6350,-93.6417,2.0,30.3334,11111222 
TABS,ioos:station:wmo:42051:1,2017-02-05T05:30:00Z,29.6350,-93.6417,2.0,30.2828,11111222 
TABS,ioos:station:wmo:42051:1,2017-02-05T06:00:00Z,29.6350,-93.6417,2.0,30.2432,11111222 
TABS,ioos:station:wmo:42051:1,2017-02-05T06:30:00Z,29.6350,-93.6417,2.0,30.2247,11111222 
TABS,ioos:station:wmo:42051:1,2017-02-05T07:00:00Z,29.6350,-93.6417,2.0,30.23,11111222 
TABS,ioos:station:wmo:42051:1,2017-02-05T07:30:00Z,29.6350,-93.6417,2.0,30.2428,11111222 
TABS,ioos:station:wmo:42051:1,2017-02-05T08:00:00Z,29.6350,-93.6417,2.0,30.2487,11111222 
TABS,ioos:station:wmo:42051:1,2017-02-05T08:30:00Z,29.6350,-93.6417,2.0,30.2172,11111222 
TABS,ioos:station:wmo:42051:1,2017-02-05T09:00:00Z,29.6350,-93.6417,2.0,30.1916,11111222 
TABS,ioos:station:wmo:42051:1,2017-02-05T09:30:00Z,29.6350,-93.6417,2.0,30.1429,11111222 
TABS,ioos:station:wmo:42051:1,2017-02-05T10:00:00Z,29.6350,-93.6417,2.0,30.1138,11111222 
TABS,ioos:station:wmo:42051:1,2017-02-05T10:30:00Z,29.6350,-93.6417,2.0,30.1286,11111222 
TABS,ioos:station:wmo:42051:1,2017-02-05T11:00:00Z,29.6350,-93.6417,2.0,30.0932,11111222 
TABS,ioos:station:wmo:42051:1,2017-02-05T11:30:00Z,29.6350,-93.6417,2.0,30.0287,11111222 
TABS,ioos:station:wmo:42051:1,2017-02-05T12:00:00Z,29.6350,-93.6417,2.0,30.0004,11111222 
TABS,ioos:station:wmo:42051:1,2017-02-05T12:30:00Z,29.6350,-93.6417,2.0,30.1654,11111222 
TABS,ioos:station:wmo:42051:1,2017-02-05T13:00:00Z,29.6350,-93.6417,2.0,30.4015,11111222 
TABS,ioos:station:wmo:42051:1,2017-02-05T13:30:00Z,29.6350,-93.6417,2.0,30.5228,11111222 
TABS,ioos:station:wmo:42051:1,2017-02-05T14:00:00Z,29.6350,-93.6417,2.0,30.5532,11111222 
TABS,ioos:station:wmo:42051:1,2017-02-05T14:30:00Z,29.6350,-93.6417,2.0,30.5671,11111222 
TABS,ioos:station:wmo:42051:1,2017-02-05T15:00:00Z,29.6350,-93.6417,2.0,30.575,11111222 
TABS,ioos:station:wmo:42051:1,2017-02-05T15:30:00Z,29.6350,-93.6417,2.0,30.5714,11111222 
TABS,ioos:station:wmo:42051:1,2017-02-05T16:00:00Z,29.6350,-93.6417,2.0,30.5871,11111222 
TABS,ioos:station:wmo:42051:1,2017-02-05T16:30:00Z,29.6350,-93.6417,2.0,30.5741,11111222 
TABS,ioos:station:wmo:42051:1,2017-02-05T17:00:00Z,29.6350,-93.6417,2.0,30.5922,11111222 
TABS,ioos:station:wmo:42051:1,2017-02-05T17:30:00Z,29.6350,-93.6417,2.0,30.5728,11111222 
TABS,ioos:station:wmo:42051:1,2017-02-05T18:00:00Z,29.6350,-93.6417,2.0,30.5764,11111222 
TABS,ioos:station:wmo:42051:1,2017-02-05T18:30:00Z,29.6350,-93.6417,2.0,30.5834,11111222 
TABS,ioos:station:wmo:42051:1,2017-02-05T19:00:00Z,29.6350,-93.6417,2.0,30.5751,11111222 
TABS,ioos:station:wmo:42051:1,2017-02-05T19:30:00Z,29.6350,-93.6417,2.0,30.6042,11111222 
TABS,ioos:station:wmo:42051:1,2017-02-05T20:00:00Z,29.6350,-93.6417,2.0,30.6064,11111222 
TABS,ioos:station:wmo:42051:1,2017-02-05T20:30:00Z,29.6350,-93.6417,2.0,30.6164,11111222 
TABS,ioos:station:wmo:42051:1,2017-02-05T21:00:00Z,29.6350,-93.6417,2.0,30.6125,11111222 
TABS,ioos:station:wmo:42051:1,2017-02-05T21:30:00Z,29.6350,-93.6417,2.0,30.6153,11111222 
TABS,ioos:station:wmo:42051:1,2017-02-05T22:00:00Z,29.6350,-93.6417,2.0,30.6406,11111222 
TABS,ioos:station:wmo:42051:1,2017-02-05T22:30:00Z,29.6350,-93.6417,2.0,30.6319,11111222 
TABS,ioos:station:wmo:42051:1,2017-02-05T23:00:00Z,29.6350,-93.6417,2.0,30.6512,11111222 
TABS,ioos:station:wmo:42051:1,2017-02-05T23:30:00Z,29.6350,-93.6417,2.0,30.6514,11111222 
TABS,ioos:station:wmo:42051:1,2017-02-06T00:00:00Z,29.6350,-93.6417,2.0,30.6541,11111222 
TABS,ioos:station:wmo:42051:1,2017-02-06T00:30:00Z,29.6350,-93.6417,2.0,30.677,11111222 
TABS,ioos:station:wmo:42051:1,2017-02-06T01:00:00Z,29.6350,-93.6417,2.0,30.683,11111222 
TABS,ioos:station:wmo:42051:1,2017-02-06T01:30:00Z,29.6350,-93.6417,2.0,30.6833,11111222 
TABS,ioos:station:wmo:42051:1,2017-02-06T02:00:00Z,29.6350,-93.6417,2.0,30.6867,11111222 
TABS,ioos:station:wmo:42051:1,2017-02-06T02:30:00Z,29.6350,-93.6417,2.0,30.686,11111222 
TABS,ioos:station:wmo:42051:1,2017-02-06T03:00:00Z,29.6350,-93.6417,2.0,30.6786,11111222 
TABS,ioos:station:wmo:42051:1,2017-02-06T03:30:00Z,29.6350,-93.6417,2.0,30.6811,11111222 
TABS,ioos:station:wmo:42051:1,2017-02-06T04:00:00Z,29.6350,-93.6417,2.0,30.683,11111222 
TABS,ioos:station:wmo:42051:1,2017-02-06T04:30:00Z,29.6350,-93.6417,2.0,30.6877,11111222 
TABS,ioos:station:wmo:42051:1,2017-02-06T05:00:00Z,29.6350,-93.6417,2.0,30.6967,11111222 
TABS,ioos:station:wmo:42051:1,2017-02-06T05:30:00Z,29.6350,-93.6417,2.0,30.7088,11111222 
TABS,ioos:station:wmo:42051:1,2017-02-06T06:00:00Z,29.6350,-93.6417,2.0,30.7149,11111222 
TABS,ioos:station:wmo:42051:1,2017-02-06T06:30:00Z,29.6350,-93.6417,2.0,30.7184,11111222 
TABS,ioos:station:wmo:42051:1,2017-02-06T07:00:00Z,29.6350,-93.6417,2.0,30.7206,11111222 
TABS,ioos:station:wmo:42051:1,2017-02-06T07:30:00Z,29.6350,-93.6417,2.0,30.7216,11111222 
TABS,ioos:station:wmo:42051:1,2017-02-06T08:00:00Z,29.6350,-93.6417,2.0,30.7255,11111222 
TABS,ioos:station:wmo:42051:1,2017-02-06T08:30:00Z,29.6350,-93.6417,2.0,30.7374,11111222 
TABS,ioos:station:wmo:42051:1,2017-02-06T09:00:00Z,29.6350,-93.6417,2.0,30.7418,11111222 
TABS,ioos:station:wmo:42051:1,2017-02-06T09:30:00Z,29.6350,-93.6417,2.0,30.7438,11111222 
TABS,ioos:station:wmo:42051:1,2017-02-06T10:00:00Z,29.6350,-93.6417,2.0,30.7026,11111222 
TABS,ioos:station:wmo:42051:1,2017-02-06T10:30:00Z,29.6350,-93.6417,2.0,30.6981,11111222 
TABS,ioos:station:wmo:42051:1,2017-02-06T11:00:00Z,29.6350,-93.6417,2.0,30.6884,11111222 
TABS,ioos:station:wmo:42051:1,2017-02-06T11:30:00Z,29.6350,-93.6417,2.0,30.6804,11111222 
TABS,ioos:station:wmo:42051:1,2017-02-06T12:00:00Z,29.6350,-93.6417,2.0,30.6778,11111222 
TABS,ioos:station:wmo:42051:1,2017-02-06T12:30:00Z,29.6350,-93.6417,2.0,30.6701,11111222 
TABS,ioos:station:wmo:42051:1,2017-02-06T13:00:00Z,29.6350,-93.6417,2.0,30.6504,11111222 
TABS,ioos:station:wmo:42051:1,2017-02-06T13:30:00Z,29.6350,-93.6417,2.0,30.6223,11111222 
TABS,ioos:station:wmo:42051:1,2017-02-06T14:00:00Z,29.6350,-93.6417,2.0,30.6297,11111222 
TABS,ioos:station:wmo:42051:1,2017-02-06T14:30:00Z,29.6350,-93.6417,2.0,30.6272,11111222 
TABS,ioos:station:wmo:42051:1,2017-02-06T15:00:00Z,29.6350,-93.6417,2.0,30.6342,11111222 
TABS,ioos:station:wmo:42051:1,2017-02-06T15:30:00Z,29.6350,-93.6417,2.0,30.6218,11111222 
TABS,ioos:station:wmo:42051:1,2017-02-06T16:00:00Z,29.6350,-93.6417,2.0,30.6316,11111222 
TABS,ioos:station:wmo:42051:1,2017-02-06T16:30:00Z,29.6350,-93.6417,2.0,30.6269,11111222 
TABS,ioos:station:wmo:42051:1,2017-02-06T17:00:00Z,29.6350,-93.6417,2.0,30.6018,11111222 